(307366) = 2002 RC255 = 2005 GC85

Discovered at Palomar on 2002-09-14 by NEAT.

Orbit

Orbit type: Main Belt

Note: WebGL enabled browser required.

epoch2022-01-21.0
epoch JD2459600.5
perihelion date2019-08-11.17515
perihelion JD2458706.67515
argument of perihelion (°)159.71867
ascending node (°)164.62275
inclination (°)3.68482
eccentricity0.1772575
perihelion distance (AU)2.1644678
Tisserand w.r.t. Jupiter3.4
ΔV w.r.t. Earth (km/sec)9.3
semimajor axis (AU)2.6307962
mean anomaly (°)206.45503
mean daily motion (°/day)0.23097930
aphelion distance (AU)3.097
period (years)4.27
P-vector [x]0.81269525
P-vector [y]-0.54307718
P-vector [z]-0.21117196
Q-vector [x]0.58243969
Q-vector [y]0.76772293
Q-vector [z]0.26714325
absolute magnitude17.26
phase slope0.15
uncertainty0
referenceMPO 697289
observations used302
oppositions14
arc length (days)9985
first opposition used1994
last opposition used2022
residual rms (arc-secs)0.73
perturbers coarse indicatorM-v
perturbers precise indicator003Ek
first observation date used1994-11-30.0
last observation date used2022-04-02.0
computer namePan
JD of orbit computation2456819.424216
perihelion JD uncertainty (days)1.1403E-04
argument of perihelion uncertainty (°)1.0598E-04
ascending node uncertainty (°)1.0357E-04
inclination uncertainty (°)5.8634E-06
eccentricity uncertainty 5.0822E-08
perihelion distance uncertainty (AU)1.4172E-07
Minimum Orbit Intersection Distances (in AU)
for orbit epoch: 2458200.5, reference: MPO408214
Mercury1.74816
Venus1.436
Earth1.14848
Mars0.782159
Jupiter2.22425
Saturn6.08945
Uranus15.1406
Neptune26.982

Observations

307 total observations over interval: 1994 11 30.30183 – 2022 04 02.399716
These data are available for download (format description).

Date (UT) J2000 RA J2000 Dec Magn Location Ref
1994 11 30.30183 03 40 07.14 +13 41 29.0   691 – Steward Observatory, Kitt Peak-Spacewatch MPS 175701
1994 11 30.32557 03 40 05.84 +13 41 23.6 20.5 V 691 – Steward Observatory, Kitt Peak-Spacewatch MPS 175701
1994 11 30.34947 03 40 04.49 +13 41 20.2   691 – Steward Observatory, Kitt Peak-Spacewatch MPS 175701
2002 09 01.40865 22 43 51.48 -07 19 35.2 19.0 R 608 – Haleakala-AMOS MPS 171374
2002 09 01.41898 22 43 50.95 -07 19 38.9 18.7 R 608 – Haleakala-AMOS MPS 171374
2002 09 01.42977 22 43 50.48 -07 19 43.3 19.1 R 608 – Haleakala-AMOS MPS 171374
2002 09 14.25644 22 34 34.36 -08 48 28.3 20.1 R 644 – Palomar Mountain/NEAT MPS 171374
2002 09 14.27767 22 34 33.44 -08 48 36.9 19.9 R 644 – Palomar Mountain/NEAT MPS 171374
2002 09 14.29850 22 34 32.53 -08 48 44.9 20.0 R 644 – Palomar Mountain/NEAT MPS 171374
2002 09 16.13044 22 33 22.76 -09 00 18.1 19.8 R 644 – Palomar Mountain/NEAT MPS 171374
2002 09 16.20394 22 33 19.90 -09 00 45.2 19.6 R 644 – Palomar Mountain/NEAT MPS 171374
2002 09 16.26905 22 33 17.34 -09 01 09.6 20.4 R 644 – Palomar Mountain/NEAT MPS 171374
2005 04 04.27858 11 35 59.19 +04 08 25.0 20.8 R G96 – Mt. Lemmon Survey MPS 131847
2005 04 04.28487 11 35 58.94 +04 08 27.0 21.5 R G96 – Mt. Lemmon Survey MPS 131847
2005 04 04.29119 11 35 58.59 +04 08 29.0 22.0 R G96 – Mt. Lemmon Survey MPS 131847
2005 04 04.29751 11 35 58.33 +04 08 31.1 21.2 R G96 – Mt. Lemmon Survey MPS 131847
2005 04 11.23176 11 31 20.68 +04 43 47.0 21.9 R G96 – Mt. Lemmon Survey MPS 131847
2005 04 11.23955 11 31 20.39 +04 43 49.6 21.3 R G96 – Mt. Lemmon Survey MPS 131847
2005 04 11.24735 11 31 20.04 +04 43 50.0 20.9 R G96 – Mt. Lemmon Survey MPS 131847
2005 04 11.25521 11 31 19.80 +04 43 54.3 21.0 R G96 – Mt. Lemmon Survey MPS 131847
2007 12 05.36437 05 21 38.66 +17 24 40.6 20.5 V G96 – Mt. Lemmon Survey MPS 229731
2007 12 05.37044 05 21 38.26 +17 24 40.4 20.8 V G96 – Mt. Lemmon Survey MPS 229731
2007 12 05.37640 05 21 37.90 +17 24 40.0 20.4 V G96 – Mt. Lemmon Survey MPS 229731
2007 12 05.38245 05 21 37.51 +17 24 39.7 20.2 V G96 – Mt. Lemmon Survey MPS 229731
2009 02 27.26627 10 32 07.20 +08 26 45.5   291 – LPL/Spacewatch II MPS 278582
2009 02 27.27005 10 32 07.02 +08 26 46.9   291 – LPL/Spacewatch II MPS 278582
2009 02 27.27384 10 32 06.79 +08 26 48.1   291 – LPL/Spacewatch II MPS 278582
2010 05 19.37819 16 41 54.42 -16 04 04.1 20.0 V G96 – Mt. Lemmon Survey MPS 327317
2010 05 19.38355 16 41 54.13 -16 04 03.1 19.9 V G96 – Mt. Lemmon Survey MPS 327317
2010 05 19.38894 16 41 53.88 -16 04 02.3 20.0 V G96 – Mt. Lemmon Survey MPS 327317
2010 05 19.39436 16 41 53.59 -16 04 01.3 20.0 V G96 – Mt. Lemmon Survey MPS 327317
2010 06 04.425120 16 27 19.478 -15 22 44.98 19.92 i F51 – Pan-STARRS 1, Haleakala MPS 337288
2010 06 04.437095 16 27 18.777 -15 22 43.41 20.16 i F51 – Pan-STARRS 1, Haleakala MPS 337288
2010 06 11.393281 16 20 56.748 -15 09 04.01 20.51 g F51 – Pan-STARRS 1, Haleakala MPS 337288
2010 06 11.404412 16 20 56.123 -15 09 02.78 21.10 g F51 – Pan-STARRS 1, Haleakala MPS 337288
2010 06 15.31163 16 17 34.36 -15 03 05.6 19.9 V G96 – Mt. Lemmon Survey MPS 331896
2010 06 15.31753 16 17 34.11 -15 03 05.2 20.1 V G96 – Mt. Lemmon Survey MPS 331896
2010 06 15.32345 16 17 33.79 -15 03 04.6 20.2 V G96 – Mt. Lemmon Survey MPS 331896
2010 06 15.32940 16 17 33.46 -15 03 04.2 20.2 V G96 – Mt. Lemmon Survey MPS 331896
2011 10 22.31305 03 38 30.59 +14 12 29.9 20.8 V 691 – Steward Observatory, Kitt Peak-Spacewatch MPS 396253
2011 10 22.33081 03 38 29.84 +14 12 25.4 20.5 V 691 – Steward Observatory, Kitt Peak-Spacewatch MPS 396253
2011 10 22.34859 03 38 29.00 +14 12 21.9 20.4 V 691 – Steward Observatory, Kitt Peak-Spacewatch MPS 396253
2011 11 18.26877 03 14 37.06 +12 15 34.2 19.8 V G96 – Mt. Lemmon Survey MPS 399955
2011 11 18.27681 03 14 36.63 +12 15 32.4 19.7 V G96 – Mt. Lemmon Survey MPS 399955
2011 11 18.28491 03 14 36.13 +12 15 30.6 19.7 V G96 – Mt. Lemmon Survey MPS 399955
2011 11 18.29295 03 14 35.70 +12 15 28.6 19.9 V G96 – Mt. Lemmon Survey MPS 399955
2011 12 02.25645 03 02 51.881 +11 31 42.68 21.6 i F51 – Pan-STARRS 1, Haleakala MPS 402331
2011 12 02.26921 03 02 51.306 +11 31 41.16 21.2 i F51 – Pan-STARRS 1, Haleakala MPS 402331
2011 12 02.28266 03 02 50.690 +11 31 39.18 21.1 r F51 – Pan-STARRS 1, Haleakala MPS 402331
2013 02 03.34791 09 20 50.313 +12 53 19.39 21.2 w F51 – Pan-STARRS 1, Haleakala MPS 456224
2013 02 03.36254 09 20 49.515 +12 53 24.01 21.4 w F51 – Pan-STARRS 1, Haleakala MPS 456224
2013 02 03.37726 09 20 48.704 +12 53 28.21 21.3 w F51 – Pan-STARRS 1, Haleakala MPS 456224
2013 02 03.39186 09 20 47.907 +12 53 32.56 21.5 w F51 – Pan-STARRS 1, Haleakala MPS 456224
2013 03 03.25761 08 57 59.705 +15 04 49.42 21.6 w F51 – Pan-STARRS 1, Haleakala MPS 459171
2013 03 03.27192 08 57 59.141 +15 04 52.87 21.8 w F51 – Pan-STARRS 1, Haleakala MPS 459171
2013 03 03.28630 08 57 58.583 +15 04 56.10 21.8 w F51 – Pan-STARRS 1, Haleakala MPS 459171
2013 03 03.30066 08 57 58.007 +15 04 59.66 21.7 w F51 – Pan-STARRS 1, Haleakala MPS 459171
2013 03 13.12478 08 52 40.52 +15 39 31.6 21.6 R 695 – Kitt Peak MPS 483496
2013 03 13.20409 08 52 38.36 +15 39 46.4   695 – Kitt Peak MPS 483496
2014 03 27.53471 14 49 01.551 -12 11 26.29 21.1 w F51 – Pan-STARRS 1, Haleakala MPS 508389
2014 03 27.54605 14 49 01.274 -12 11 23.77 21.4 w F51 – Pan-STARRS 1, Haleakala MPS 508389
2014 03 27.55690 14 49 01.018 -12 11 21.15 21.2 w F51 – Pan-STARRS 1, Haleakala MPS 508389
2014 03 27.56773 14 49 00.747 -12 11 18.84 21.2 w F51 – Pan-STARRS 1, Haleakala MPS 508389
2014 04 05.52715 14 44 41.921 -11 34 05.22 20.8 w F51 – Pan-STARRS 1, Haleakala MPS 510985
2014 04 05.53772 14 44 41.534 -11 34 02.35 20.9 w F51 – Pan-STARRS 1, Haleakala MPS 510985
2014 04 05.54827 14 44 41.149 -11 33 59.28 20.9 w F51 – Pan-STARRS 1, Haleakala MPS 510985
2014 04 05.55884 14 44 40.755 -11 33 56.45 21.0 w F51 – Pan-STARRS 1, Haleakala MPS 510985
2014 04 23.27669 14 31 35.56 -10 03 00.6 20.7 V W84 – Cerro Tololo-DECam MPS 789567
2014 04 23.27992 14 31 35.39 -10 02 59.5   W84 – Cerro Tololo-DECam MPS 789567
2014 04 23.28310 14 31 35.22 -10 02 58.5   W84 – Cerro Tololo-DECam MPS 789567
2014 04 23.28628 14 31 35.05 -10 02 57.5   W84 – Cerro Tololo-DECam MPS 789567
2014 04 23.28948 14 31 34.88 -10 02 56.4   W84 – Cerro Tololo-DECam MPS 789567
2014 04 24.29765 14 30 42.96 -09 57 26.5 20.5   W84 – Cerro Tololo-DECam MPS 789567
2014 04 24.30080 14 30 42.79 -09 57 25.4   W84 – Cerro Tololo-DECam MPS 789567
2014 04 24.30394 14 30 42.62 -09 57 24.4   W84 – Cerro Tololo-DECam MPS 789567
2014 04 24.30709 14 30 42.46 -09 57 23.5   W84 – Cerro Tololo-DECam MPS 789567
2014 04 24.31025 14 30 42.29 -09 57 22.3   W84 – Cerro Tololo-DECam MPS 789567
2014 04 25.31427 14 29 50.16 -09 51 53.7 20.8 V W84 – Cerro Tololo-DECam MPS 789567
2014 04 25.31743 14 29 49.99 -09 51 52.7   W84 – Cerro Tololo-DECam MPS 789567
2014 04 25.32059 14 29 49.82 -09 51 51.6   W84 – Cerro Tololo-DECam MPS 789567
2014 04 25.32372 14 29 49.65 -09 51 50.6   W84 – Cerro Tololo-DECam MPS 789567
2014 04 25.32685 14 29 49.49 -09 51 49.6   W84 – Cerro Tololo-DECam MPS 789567
2014 04 26.20022 14 29 04.08 -09 47 04.2 20.5 V W84 – Cerro Tololo-DECam MPS 789567
2014 04 26.20347 14 29 03.90 -09 47 03.1   W84 – Cerro Tololo-DECam MPS 789567
2014 04 26.20671 14 29 03.72 -09 47 02.1   W84 – Cerro Tololo-DECam MPS 789567
2014 04 26.20995 14 29 03.54 -09 47 01.0   W84 – Cerro Tololo-DECam MPS 789567
2014 04 26.21309 14 29 03.37 -09 46 59.9   W84 – Cerro Tololo-DECam MPS 789567
2014 05 02.35963 14 23 38.22 -09 14 01.8 20.5 V G96 – Mt. Lemmon Survey MPS 513688
2014 05 02.36425 14 23 37.96 -09 14 01.0 20.5 V G96 – Mt. Lemmon Survey MPS 513688
2014 05 02.36886 14 23 37.69 -09 13 59.4 20.7 V G96 – Mt. Lemmon Survey MPS 513688
2014 05 02.37346 14 23 37.44 -09 13 58.1 20.2 V G96 – Mt. Lemmon Survey MPS 513688
2014 05 28.19944 14 04 06.19 -07 28 14.9 20.9 V G96 – Mt. Lemmon Survey MPS 517762
2014 05 28.20454 14 04 05.97 -07 28 13.8 21.0 V G96 – Mt. Lemmon Survey MPS 517762
2014 05 28.20963 14 04 05.75 -07 28 13.0 20.7 V G96 – Mt. Lemmon Survey MPS 517762
2014 05 28.21473 14 04 05.64 -07 28 12.7 20.9 V G96 – Mt. Lemmon Survey MPS 517762
